Location: Boncourt
(49.6160°N, 3.9448°E)
Time: 06:02:42
(UTC+00:00)

Cosmos 1850 Rocket - Pass Details

Date: 09 February 2023
Orbit: 753 x 785 km, 74.0° (Epoch: 30 March)

Event Time Altitude Azimuth Distance (km) Brightness Sun altitude
Rises 18:06:30 0° 205° (SSW) 3,198 7.7 -12.3°
Reaches altitude 10° 18:08:51 10° 207° (SSW) 2,275 6.9 -12.7°
Maximum altitude 18:14:01 79° 294° (WNW) 773 4.1 -13.6°
Drops below altitude 10° 18:19:13 10° 22° (NNE) 2,289 6.2 -14.4°
Sets 18:21:36 0° 24° (NNE) 3,220 6.9 -14.8°
